This is the latest recevied weather packets stored in our database for station/object N8XE-13. If no packets are shown the sender has not sent any weather packets the latest 10 day(s).
| Time | Temp. | Humidity | Pressure | Rain* | Wind** | Luminosity | Snow |
|---|---|---|---|---|---|---|---|
| 1777654689 | 9.44° C | 86% | - | 0 mm | - | - | - |
| 1777654387 | 9.44° C | 86% | - | 0 mm | - | - | - |
| 1777654084 | 9.44° C | 86% | - | 0 mm | - | - | - |
| 1777653782 | 9.44° C | 86% | - | 1.27 mm | - | - | - |
| 1777653477 | 9.44° C | 86% | - | 1.27 mm | - | - | - |
| 1777653175 | 10° C | 87% | - | 0 mm | - | - | - |
| 1777652870 | 9.44° C | 87% | - | 0 mm | - | - | - |
| 1777652568 | 9.44° C | 87% | - | 0 mm | - | - | - |
| 1777652264 | 8.89° C | 87% | - | 0 mm | - | - | - |
| 1777651962 | 8.33° C | 88% | - | 0 mm | - | - | - |
| 1777651658 | 7.78° C | 88% | - | 0 mm | - | - | - |
| 1777651355 | 7.78° C | 89% | - | 0 mm | - | - | - |
| 1777651052 | 7.78° C | 90% | - | 0 mm | - | - | - |
| 1777650749 | 7.78° C | 90% | - | 0 mm | - | - | - |
| 1777650446 | 7.78° C | 89% | - | 1.78 mm | - | - | - |
| 1777650143 | 7.78° C | 89% | - | 1.78 mm | - | - | - |
| 1777649841 | 7.78° C | 88% | - | 0 mm | - | - | - |
| 1777649538 | 8.33° C | 88% | - | 1.27 mm | - | - | - |
| 1777649234 | 8.33° C | 88% | - | 1.27 mm | - | - | - |
| 1777648931 | 8.33° C | 88% | - | 1.78 mm | - | - | - |
| 1777648628 | 8.33° C | 88% | - | 1.78 mm | - | - | - |
| 1777648324 | 8.33° C | 88% | - | 0 mm | - | - | - |
| 1777648021 | 8.33° C | 87% | - | 1.78 mm | - | - | - |
| 1777647717 | 8.33° C | 87% | - | 4.83 mm | - | - | - |
| 1777647413 | 8.33° C | 86% | - | 3.05 mm | - | - | - |
* Rain latest hour (hover to see other rain measurements)
** Current wind speed in m/s (hover to see current wind gust speed)